FAG01 SAVC-SAZB

Flight info

Callsign FAG01
Flight time 1h 16m
Altitude 37000
Route GATUD2G GATUD UP664 TRE UT693 LOMUS DCT SANBU SANBU2Q
Aircraft B737/M-SDE2E3FGHIRWXY/LB1

Departure

Time 2026-05-07 22:47
Airport General Enrique Mosconi International Airport (SAVC)

Arrival

Time 2026-05-08 00:03
Airport Comandante Espora Airport (SAZB)
Time Latitude Longitude Altitude Speed Heading
2026-05-07 22:26 -45.78951 -67.46889 223 ft 0 kts 226°
2026-05-07 22:39 -45.78944 -67.46878 224 ft 3 kts 218°
2026-05-07 22:39 -45.78927 -67.46866 226 ft 3 kts 175°
2026-05-07 22:39 -45.78915 -67.46874 224 ft 3 kts 104°
2026-05-07 22:40 -45.78913 -67.46889 224 ft 2 kts 88°
2026-05-07 22:40 -45.78914 -67.46916 223 ft 3 kts 88°
2026-05-07 22:40 -45.78915 -67.46930 225 ft 0 kts 88°
2026-05-07 22:43 -45.78913 -67.46867 223 ft 9 kts 88°
2026-05-07 22:43 -45.78874 -67.46801 223 ft 9 kts
2026-05-07 22:43 -45.78810 -67.46803 222 ft 9 kts 356°
2026-05-07 22:43 -45.78757 -67.46771 222 ft 9 kts 63°
2026-05-07 22:44 -45.78732 -67.46626 222 ft 21 kts 80°
2026-05-07 22:44 -45.78700 -67.46375 222 ft 28 kts 80°
2026-05-07 22:44 -45.78665 -67.46105 222 ft 27 kts 79°
2026-05-07 22:44 -45.78633 -67.45853 222 ft 25 kts 79°
2026-05-07 22:45 -45.78600 -67.45620 222 ft 23 kts 79°
2026-05-07 22:45 -45.78572 -67.45398 222 ft 22 kts 80°
2026-05-07 22:45 -45.78543 -67.45182 222 ft 22 kts 78°
2026-05-07 22:45 -45.78516 -67.44972 222 ft 21 kts 79°
2026-05-07 22:46 -45.78452 -67.44860 221 ft 12 kts 25°
2026-05-07 22:46 -45.78418 -67.44840 219 ft 4 kts 17°
2026-05-07 22:46 -45.78367 -67.44832 215 ft 12 kts
2026-05-07 22:46 -45.78305 -67.44893 208 ft 9 kts 263°
2026-05-07 22:47 -45.78308 -67.44912 209 ft 14 kts 256°
2026-05-07 22:47 -45.78388 -67.45509 212 ft 106 kts 258°
2026-05-07 22:47 -45.78540 -67.46897 426 ft 161 kts 259°
2026-05-07 22:47 -45.78741 -67.48369 1657 ft 142 kts 241°
2026-05-07 22:48 -45.79276 -67.49605 2532 ft 159 kts 237°
2026-05-07 22:48 -45.79825 -67.51184 2968 ft 195 kts 238°
2026-05-07 22:48 -45.80401 -67.52986 3792 ft 198 kts 237°
2026-05-07 22:48 -45.80979 -67.54795 4637 ft 205 kts 237°
2026-05-07 22:49 -45.81597 -67.56689 5529 ft 210 kts 237°
2026-05-07 22:49 -45.81943 -67.58792 6248 ft 236 kts 264°
2026-05-07 22:49 -45.81510 -67.61167 7034 ft 258 kts 289°
2026-05-07 22:49 -45.80379 -67.63237 7882 ft 275 kts 315°
2026-05-07 22:50 -45.78635 -67.64489 8674 ft 289 kts 344°
2026-05-07 22:50 -45.76616 -67.64501 9444 ft 299 kts 13°
2026-05-07 22:50 -45.74664 -67.63310 10108 ft 311 kts 33°
2026-05-07 22:50 -45.72830 -67.61539 10785 ft 329 kts 38°
2026-05-07 22:51 -45.70943 -67.59506 11392 ft 346 kts 39°
2026-05-07 22:51 -45.69024 -67.57397 12429 ft 347 kts 39°
2026-05-07 22:51 -45.67106 -67.55310 13552 ft 347 kts 38°
2026-05-07 22:51 -45.65165 -67.53225 14526 ft 350 kts 37°
2026-05-07 22:52 -45.63200 -67.51143 15510 ft 352 kts 37°
2026-05-07 22:52 -45.61218 -67.49065 16490 ft 354 kts 36°
2026-05-07 22:52 -45.59221 -67.46986 17391 ft 357 kts 36°
2026-05-07 22:52 -45.57198 -67.44889 18188 ft 363 kts 35°
2026-05-07 22:53 -45.55139 -67.42764 19014 ft 366 kts 35°
2026-05-07 22:53 -45.53071 -67.40634 19857 ft 370 kts 35°
2026-05-07 22:53 -45.50962 -67.38465 20549 ft 377 kts 35°
2026-05-07 22:53 -45.48807 -67.36251 21195 ft 385 kts 35°
2026-05-07 22:54 -45.46618 -67.34007 21871 ft 391 kts 36°
2026-05-07 22:54 -45.44406 -67.31741 22671 ft 392 kts 36°
2026-05-07 22:54 -45.42201 -67.29484 23598 ft 389 kts 36°
2026-05-07 22:54 -45.40000 -67.27233 24405 ft 390 kts 36°
2026-05-07 22:55 -45.37820 -67.25005 25116 ft 393 kts 36°
2026-05-07 22:55 -45.35588 -67.22725 25759 ft 397 kts 36°
2026-05-07 22:55 -45.33337 -67.20429 26031 ft 398 kts 36°
2026-05-07 22:55 -45.31088 -67.18139 26036 ft 398 kts 36°
2026-05-07 22:56 -45.28831 -67.15842 26045 ft 399 kts 36°
2026-05-07 22:56 -45.26575 -67.13527 26063 ft 404 kts 37°
2026-05-07 22:56 -45.24286 -67.11087 26070 ft 420 kts 37°
2026-05-07 22:56 -45.21902 -67.08539 26157 ft 437 kts 37°
2026-05-07 22:57 -45.19419 -67.05921 26281 ft 451 kts 37°
2026-05-07 22:57 -45.16838 -67.03246 26384 ft 465 kts 36°
2026-05-07 22:57 -45.14179 -67.00529 26480 ft 476 kts 36°
2026-05-07 22:57 -45.11451 -66.97768 26565 ft 487 kts 36°
2026-05-07 22:58 -45.08665 -66.94968 26648 ft 496 kts 36°
2026-05-07 22:58 -45.05826 -66.92123 26784 ft 502 kts 35°
2026-05-07 22:58 -45.02966 -66.89264 26949 ft 506 kts 35°
2026-05-07 22:58 -45.01059 -66.87359 27081 ft 507 kts 35°
2026-05-07 22:59 -44.97207 -66.83512 27465 ft 507 kts 35°
2026-05-07 22:59 -44.94366 -66.80676 27790 ft 507 kts 36°
2026-05-07 22:59 -44.91472 -66.77790 28030 ft 509 kts 35°
2026-05-07 22:59 -44.88572 -66.74900 28294 ft 511 kts 36°
2026-05-07 23:00 -44.86608 -66.72944 28495 ft 511 kts 36°
2026-05-07 23:00 -44.83699 -66.70051 28798 ft 512 kts 35°
2026-05-07 23:00 -44.80813 -66.67185 29026 ft 515 kts 36°
2026-05-07 23:00 -44.77879 -66.64273 29284 ft 515 kts 35°
2026-05-07 23:01 -44.74939 -66.61369 29518 ft 518 kts 36°
2026-05-07 23:01 -44.71977 -66.58454 29779 ft 522 kts 36°
2026-05-07 23:01 -44.69006 -66.55526 30095 ft 522 kts 36°
2026-05-07 23:01 -44.66031 -66.52589 30335 ft 524 kts 36°
2026-05-07 23:02 -44.63037 -66.49632 30600 ft 525 kts 36°
2026-05-07 23:02 -44.60051 -66.46700 31035 ft 523 kts 36°
2026-05-07 23:02 -44.57073 -66.43769 31510 ft 521 kts 36°
2026-05-07 23:02 -44.54116 -66.40866 31937 ft 517 kts 36°
2026-05-07 23:03 -44.51166 -66.37974 32298 ft 516 kts 36°
2026-05-07 23:03 -44.48228 -66.35094 32643 ft 515 kts 36°
2026-05-07 23:03 -44.45325 -66.32255 32964 ft 514 kts 36°
2026-05-07 23:03 -44.42397 -66.29396 33332 ft 512 kts 36°
2026-05-07 23:04 -44.39480 -66.26551 33712 ft 509 kts 35°
2026-05-07 23:04 -44.36574 -66.23720 34065 ft 507 kts 35°
2026-05-07 23:04 -44.33682 -66.20906 34376 ft 506 kts 35°
2026-05-07 23:04 -44.30793 -66.18099 34632 ft 506 kts 35°
2026-05-07 23:05 -44.27902 -66.15293 34875 ft 506 kts 35°
2026-05-07 23:05 -44.25013 -66.12493 35151 ft 505 kts 35°
2026-05-07 23:05 -44.22129 -66.09700 35399 ft 505 kts 35°
2026-05-07 23:05 -44.19245 -66.06911 35580 ft 506 kts 35°
2026-05-07 23:06 -44.16348 -66.04111 35756 ft 507 kts 35°
2026-05-07 23:06 -44.13452 -66.01317 36006 ft 506 kts 35°
2026-05-07 23:06 -44.10566 -65.98535 36305 ft 504 kts 35°
2026-05-07 23:06 -44.07684 -65.95761 36504 ft 504 kts 35°
2026-05-07 23:07 -44.04787 -65.92979 36653 ft 506 kts 35°
2026-05-07 23:07 -44.01898 -65.90206 36913 ft 504 kts 35°
2026-05-07 23:07 -43.98997 -65.87464 36910 ft 504 kts 32°
2026-05-07 23:08 -43.93021 -65.82500 36914 ft 497 kts 30°
2026-05-07 23:08 -43.87037 -65.77777 36908 ft 494 kts 30°
2026-05-07 23:09 -43.81062 -65.73033 36913 ft 494 kts 30°
2026-05-07 23:09 -43.75159 -65.68299 36905 ft 493 kts 30°
2026-05-07 23:10 -43.69224 -65.63534 36899 ft 493 kts 30°
2026-05-07 23:10 -43.63282 -65.58776 36898 ft 494 kts 30°
2026-05-07 23:11 -43.57334 -65.54028 36895 ft 494 kts 30°
2026-05-07 23:11 -43.51389 -65.49294 36887 ft 494 kts 30°
2026-05-07 23:12 -43.45438 -65.44564 36890 ft 493 kts 30°
2026-05-07 23:12 -43.39492 -65.39847 36888 ft 493 kts 30°
2026-05-07 23:13 -43.33560 -65.35152 36883 ft 492 kts 29°
2026-05-07 23:13 -43.27623 -65.30469 36895 ft 492 kts 30°
2026-05-07 23:14 -43.21687 -65.25792 36892 ft 492 kts 29°
2026-05-07 23:14 -43.15712 -65.21223 36890 ft 492 kts 28°
2026-05-07 23:15 -43.09680 -65.16817 36890 ft 491 kts 27°
2026-05-07 23:15 -43.03647 -65.12422 36888 ft 491 kts 27°
2026-05-07 23:16 -42.97616 -65.08012 36894 ft 491 kts 27°
2026-05-07 23:16 -42.91624 -65.03624 36884 ft 491 kts 27°
2026-05-07 23:17 -42.85594 -64.99214 36882 ft 491 kts 27°
2026-05-07 23:17 -42.79567 -64.94819 36877 ft 491 kts 27°
2026-05-07 23:18 -42.73539 -64.90435 36878 ft 491 kts 27°
2026-05-07 23:18 -42.67516 -64.86063 36881 ft 491 kts 27°
2026-05-07 23:19 -42.61490 -64.81698 36889 ft 497 kts 27°
2026-05-07 23:19 -42.55397 -64.77294 36872 ft 495 kts 27°
2026-05-07 23:20 -42.49323 -64.72914 36873 ft 494 kts 27°
2026-05-07 23:20 -42.43256 -64.68547 36867 ft 493 kts 27°
2026-05-07 23:21 -42.37188 -64.64193 36870 ft 493 kts 27°
2026-05-07 23:21 -42.31091 -64.59958 36867 ft 492 kts 26°
2026-05-07 23:22 -42.24979 -64.55787 36860 ft 492 kts 26°
2026-05-07 23:22 -42.18888 -64.51625 36861 ft 490 kts 26°
2026-05-07 23:23 -42.12848 -64.47492 36853 ft 490 kts 26°
2026-05-07 23:23 -42.06738 -64.43316 36852 ft 489 kts 26°
2026-05-07 23:24 -42.00710 -64.39204 36847 ft 489 kts 26°
2026-05-07 23:24 -41.94632 -64.35067 36847 ft 490 kts 26°
2026-05-07 23:25 -41.88541 -64.30929 36830 ft 491 kts 26°
2026-05-07 23:25 -41.82447 -64.26799 36834 ft 490 kts 26°
2026-05-07 23:26 -41.76384 -64.22699 36813 ft 485 kts 26°
2026-05-07 23:26 -41.70386 -64.18653 36816 ft 482 kts 26°
2026-05-07 23:27 -41.61372 -64.12589 36810 ft 485 kts 26°
2026-05-07 23:27 -41.55375 -64.08563 36802 ft 484 kts 26°
2026-05-07 23:28 -41.49351 -64.04528 36795 ft 484 kts 26°
2026-05-07 23:28 -41.43290 -64.00475 36791 ft 485 kts 26°
2026-05-07 23:29 -41.37258 -63.96453 36799 ft 483 kts 25°
2026-05-07 23:29 -41.31298 -63.92486 36776 ft 481 kts 25°
2026-05-07 23:30 -41.25320 -63.88516 36766 ft 479 kts 25°
2026-05-07 23:30 -41.19367 -63.84569 36766 ft 477 kts 25°
2026-05-07 23:31 -41.13425 -63.80637 36763 ft 477 kts 25°
2026-05-07 23:31 -41.07482 -63.76714 36759 ft 476 kts 25°
2026-05-07 23:32 -41.01553 -63.72806 36761 ft 476 kts 25°
2026-05-07 23:32 -40.95630 -63.68910 36759 ft 475 kts 25°
2026-05-07 23:33 -40.89744 -63.65028 36757 ft 476 kts 26°
2026-05-07 23:33 -40.83915 -63.60869 36751 ft 477 kts 27°
2026-05-07 23:34 -40.78105 -63.56604 36749 ft 477 kts 27°
2026-05-07 23:34 -40.72291 -63.52377 36751 ft 477 kts 27°
2026-05-07 23:35 -40.66465 -63.48183 36749 ft 477 kts 27°
2026-05-07 23:35 -40.60624 -63.43998 36750 ft 477 kts 27°
2026-05-07 23:36 -40.54794 -63.39829 36750 ft 477 kts 27°
2026-05-07 23:36 -40.48960 -63.35666 36750 ft 476 kts 27°
2026-05-07 23:37 -40.43176 -63.31546 36750 ft 476 kts 27°
2026-05-07 23:37 -40.37315 -63.27378 36748 ft 476 kts 27°
2026-05-07 23:38 -40.31492 -63.23247 36763 ft 475 kts 27°
2026-05-07 23:38 -40.25712 -63.19153 36759 ft 475 kts 26°
2026-05-07 23:39 -40.19895 -63.15042 36760 ft 475 kts 26°
2026-05-07 23:39 -40.14085 -63.10943 36757 ft 473 kts 26°
2026-05-07 23:40 -40.08302 -63.06871 36758 ft 471 kts 26°
2026-05-07 23:40 -40.02547 -63.02826 36761 ft 470 kts 26°
2026-05-07 23:41 -39.96792 -62.98791 36757 ft 469 kts 26°
2026-05-07 23:41 -39.91049 -62.94770 36754 ft 468 kts 26°
2026-05-07 23:42 -39.85318 -62.90768 36760 ft 466 kts 25°
2026-05-07 23:42 -39.79615 -62.86791 36767 ft 464 kts 25°
2026-05-07 23:43 -39.73978 -62.82869 36756 ft 459 kts 25°
2026-05-07 23:43 -39.68389 -62.78982 36761 ft 453 kts 25°
2026-05-07 23:44 -39.62852 -62.75142 36750 ft 442 kts 25°
2026-05-07 23:44 -39.60189 -62.73294 36749 ft 426 kts 25°
2026-05-07 23:44 -39.57621 -62.71515 36744 ft 410 kts 25°
2026-05-07 23:45 -39.55148 -62.69805 36741 ft 396 kts 25°
2026-05-07 23:45 -39.52748 -62.68147 36670 ft 385 kts 24°
2026-05-07 23:45 -39.50409 -62.66591 36598 ft 371 kts 18°
2026-05-07 23:45 -39.47992 -62.65659 36543 ft 356 kts 10°
2026-05-07 23:46 -39.44066 -62.64489 36241 ft 344 kts
2026-05-07 23:46 -39.40937 -62.63611 35684 ft 344 kts
2026-05-07 23:46 -39.39385 -62.63186 35388 ft 344 kts
2026-05-07 23:47 -39.37065 -62.62365 34961 ft 345 kts 11°
2026-05-07 23:47 -39.34737 -62.61698 34745 ft 340 kts
2026-05-07 23:47 -39.32450 -62.61057 34523 ft 334 kts
2026-05-07 23:47 -39.29444 -62.60193 34021 ft 333 kts
2026-05-07 23:48 -39.27909 -62.59750 33789 ft 334 kts 11°
2026-05-07 23:48 -39.25667 -62.59007 33519 ft 330 kts
2026-05-07 23:48 -39.23451 -62.58377 33205 ft 328 kts
2026-05-07 23:48 -39.21245 -62.57674 32881 ft 324 kts 11°
2026-05-07 23:49 -39.19066 -62.57019 32564 ft 317 kts
2026-05-07 23:49 -39.16923 -62.56315 32042 ft 319 kts 11°
2026-05-07 23:49 -39.14769 -62.55634 31590 ft 316 kts
2026-05-07 23:49 -39.12630 -62.55070 31207 ft 311 kts
2026-05-07 23:50 -39.10493 -62.54410 30400 ft 322 kts 10°
2026-05-07 23:50 -39.08305 -62.53710 29675 ft 326 kts 10°
2026-05-07 23:50 -39.06095 -62.53009 28889 ft 330 kts 10°
2026-05-07 23:50 -39.03839 -62.52311 28097 ft 336 kts
2026-05-07 23:51 -39.01548 -62.51645 27377 ft 336 kts
2026-05-07 23:51 -38.99282 -62.50936 26626 ft 332 kts 11°
2026-05-07 23:51 -38.97064 -62.50253 25866 ft 326 kts 10°
2026-05-07 23:51 -38.94880 -62.49614 25112 ft 318 kts 10°
2026-05-07 23:52 -38.92774 -62.48988 24348 ft 305 kts 11°
2026-05-07 23:52 -38.90743 -62.48375 23558 ft 297 kts 15°
2026-05-07 23:52 -38.88894 -62.47238 22783 ft 292 kts 28°
2026-05-07 23:52 -38.87182 -62.45892 22023 ft 288 kts 30°
2026-05-07 23:53 -38.85479 -62.44545 21258 ft 284 kts 30°
2026-05-07 23:53 -38.83799 -62.43228 20499 ft 281 kts 30°
2026-05-07 23:53 -38.82161 -62.41963 19719 ft 276 kts 29°
2026-05-07 23:53 -38.80498 -62.40679 18918 ft 274 kts 30°
2026-05-07 23:54 -38.78848 -62.39398 17917 ft 280 kts 30°
2026-05-07 23:54 -38.77168 -62.38106 16904 ft 284 kts 30°
2026-05-07 23:54 -38.75494 -62.36822 15923 ft 285 kts 30°
2026-05-07 23:54 -38.73787 -62.35500 14907 ft 288 kts 30°
2026-05-07 23:55 -38.72037 -62.34165 13905 ft 290 kts 30°
2026-05-07 23:55 -38.70296 -62.32844 12918 ft 291 kts 30°
2026-05-07 23:55 -38.68590 -62.31547 11954 ft 287 kts 30°
2026-05-07 23:55 -38.66886 -62.30250 10960 ft 283 kts 31°
2026-05-07 23:56 -38.65201 -62.28968 9964 ft 281 kts 31°
2026-05-07 23:56 -38.63505 -62.27718 8961 ft 281 kts 29°
2026-05-07 23:56 -38.61779 -62.26535 7963 ft 281 kts 28°
2026-05-07 23:56 -38.60051 -62.25368 6953 ft 280 kts 28°
2026-05-07 23:57 -38.58317 -62.24215 5966 ft 281 kts 27°
2026-05-07 23:57 -38.56579 -62.23044 4975 ft 284 kts 27°
2026-05-07 23:57 -38.54840 -62.21854 3981 ft 284 kts 28°
2026-05-07 23:57 -38.53371 -62.20262 3361 ft 269 kts 57°
2026-05-07 23:58 -38.52752 -62.18202 3155 ft 232 kts 92°
2026-05-07 23:58 -38.53020 -62.16388 3020 ft 188 kts 130°
2026-05-07 23:58 -38.53873 -62.15381 2750 ft 155 kts 169°
2026-05-07 23:58 -38.54863 -62.15022 2488 ft 145 kts 174°
2026-05-07 23:59 -38.55833 -62.14688 2272 ft 146 kts 173°
2026-05-07 23:59 -38.56918 -62.14349 2294 ft 179 kts 173°
2026-05-07 23:59 -38.58124 -62.14050 2214 ft 177 kts 185°
2026-05-07 23:59 -38.59230 -62.14586 2201 ft 170 kts 226°
2026-05-08 00:00 -38.59837 -62.15858 2208 ft 171 kts 238°
2026-05-08 00:00 -38.60487 -62.17126 2200 ft 170 kts 233°
2026-05-08 00:00 -38.61179 -62.18354 2196 ft 170 kts 235°
2026-05-08 00:00 -38.62081 -62.19277 2139 ft 171 kts 199°
2026-05-08 00:01 -38.63240 -62.19012 1859 ft 173 kts 158°
2026-05-08 00:01 -38.64313 -62.18503 1620 ft 157 kts 176°
2026-05-08 00:01 -38.65370 -62.18126 1424 ft 158 kts 167°
2026-05-08 00:01 -38.66410 -62.17709 1254 ft 158 kts 169°
2026-05-08 00:02 -38.67453 -62.17295 1090 ft 153 kts 167°
2026-05-08 00:02 -38.68461 -62.16888 980 ft 154 kts 169°
2026-05-08 00:02 -38.69506 -62.16519 791 ft 155 kts 169°
2026-05-08 00:02 -38.70533 -62.16138 510 ft 153 kts 168°
2026-05-08 00:03 -38.71538 -62.15773 299 ft 146 kts 167°
2026-05-08 00:03 -38.72436 -62.15451 257 ft 116 kts 164°
2026-05-08 00:03 -38.73065 -62.15212 253 ft 66 kts 162°
2026-05-08 00:03 -38.73294 -62.15141 255 ft 22 kts 182°
2026-05-08 00:04 -38.73332 -62.15150 256 ft 4 kts 194°
2026-05-08 00:04 -38.73360 -62.15160 256 ft 4 kts 195°
2026-05-08 00:04 -38.73387 -62.15172 257 ft 4 kts 199°
2026-05-08 00:04 -38.73414 -62.15182 256 ft 4 kts 194°
2026-05-08 00:05 -38.73440 -62.15190 256 ft 4 kts 193°
2026-05-08 00:05 -38.73466 -62.15198 256 ft 4 kts 194°
2026-05-08 00:05 -38.73490 -62.15210 256 ft 4 kts 208°
2026-05-08 00:05 -38.73508 -62.15233 256 ft 4 kts 236°
2026-05-08 00:06 -38.73516 -62.15264 256 ft 4 kts 272°
2026-05-08 00:06 -38.73502 -62.15290 256 ft 4 kts 314°
2026-05-08 00:06 -38.73481 -62.15307 256 ft 3 kts 332°
2026-05-08 00:06 -38.73460 -62.15321 256 ft 3 kts 332°
2026-05-08 00:07 -38.73438 -62.15331 256 ft 4 kts 343°
2026-05-08 00:07 -38.73403 -62.15343 256 ft 7 kts 345°
2026-05-08 00:07 -38.73344 -62.15364 256 ft 11 kts 344°
2026-05-08 00:07 -38.73262 -62.15393 256 ft 14 kts 344°
2026-05-08 00:08 -38.73221 -62.15413 256 ft 5 kts 322°
2026-05-08 00:08 -38.73210 -62.15439 256 ft 2 kts 290°
2026-05-08 00:08 -38.73191 -62.15458 256 ft 5 kts 343°
2026-05-08 00:08 -38.73163 -62.15468 256 ft 2 kts 345°
2026-05-08 00:09 -38.73156 -62.15470 256 ft 0 kts 345°